Regional Weather Roundup
Issued by NWS Nashville, TN

Home | Current Version | Previous Version | Text Only | Print | Product List | Glossary On
Versions: 1 2 3 4 5 6 7 8 9 10 11 12 13 14 15 16 17 18 19 20 21 22 23 24 25 26 27 28 29 30 31 32 33 34 35 36 37 38 39 40 41 42 43 44 45 46 47 48 49 50
000
ASUS44 KOHX 251710
RWROHX
MIDDLE TENNESSEE HOURLY WEATHER ROUNDUP
NATIONAL WEATHER SERVICE NASHVILLE TN
1200 PM CDT MON SEP 25 2017

NOTE: "FAIR" INDICATES FEW OR NO CLOUDS BELOW 12,000 FEET WITH
NO SIGNIFICANT WEATHER AND/OR OBSTRUCTIONS TO VISIBILITY.

* THESE REPORTS ARE NOT UNDER NWS QUALITY CONTROL AND MAY NOT
  REPORT WEATHER SUCH AS PRECIPITATION AND FOG.


TNZ005>011-023>034-057-059-062>066-078-080-251800
...NORTHERN MIDDLE TENNESSEE...

CITY           SKY/WX    TMP DP  RH WIND       PRES   REMARKS
CLARKSVILLE    SUNNY     84  62  47 S3        30.04F
CROSSVILLE     SUNNY     79  63  57 W5        30.11F
GALLATIN       SUNNY     88  66  48 S3        30.06F HX  90
DICKSON        SUNNY     85  63  47 CALM      30.05F
LEBANON        SUNNY     85  64  49 VRB3      30.04S
NASHVILLE      MOSUNNY   86  65  49 CALM      30.05F
PORTLAND       SUNNY     84  66  54 N5        30.05S
SMYRNA         MOSUNNY   82  66  57 N5        30.08S
SPARTA         SUNNY     82  66  57 W5        30.06F
SPRINGFIELD    SUNNY     84  64  51 CALM      30.03F
WEST NASHVILLE SUNNY     86  66  51 VRB6      30.02F
$$
TNZ056-058-060-061-075>077-079-093>097-251800
...SOUTHERN MIDDLE TENNESSEE...

CITY           SKY/WX    TMP DP  RH WIND       PRES   REMARKS
COLUMBIA       MOSUNNY   84 N/A N/A CALM      30.03F
FAYETTEVILLE   MOSUNNY   82  66  57 CALM      30.05F
MCMINNVILLE    MOSUNNY   84  66  54 CALM      30.06F
MURFREESBORO   SUNNY     85  65  51 CALM      30.04F
PULASKI        PTSUNNY   84  66  54 CALM      30.04F
SHELBYVILLE    MOSUNNY   84  66  54 CALM      30.05F
TULLAHOMA      MOSUNNY   82  63  51 VRB3      30.07F
WINCHESTER     PTSUNNY   82  64  54 CALM      30.06F
$$


...KEY TO REMARKS...
VSB - VISIBILITY IN MILES
WCI - WIND CHILL INDEX
HX  - HEAT INDEX




USA.gov is the U.S. government's official web portal to all federal, state and local government web resources and services.